Location: Foulognes
(49.1413°N, 0.8183°W)
Time: 17:22:58
(UTC+00:00)

STARLINK-77 - Pass Details

Date: 21 October 2019
Orbit: 549 x 551 km, 53.0° (Epoch: 20 November)

Event Time Altitude Azimuth Distance (km) Brightness Sun altitude
Rises 17:41:33 0° 268° (W) 2,716 9.6 -7.1°
Reaches altitude 10° 17:43:50 10° 274° (W) 1,823 7.9 -7.5°
Maximum altitude 17:47:53 52° 351° (N) 690 4.1 -8.1°
Enters shadow 17:51:50 11° 68° (ENE) 1,779 5.6 -8.8°
